Other Public Products
Issued by NWS Grand Forks, ND

Home | Current Version | Previous Version | Graphics & Text | Print | Product List | Glossary On
Versions: 1 2 3 4 5 6 7 8 9 10 11 12 13 14 15 16 17 18 19 20 21 22 23 24 25 26 27 28 29 30 31 32 33 34 35 36 37 38 39 40 41 42 43 44 45 46 47 48 49 50
000
FPUS83 KFGF 022331
OPUFGF
PRAIRIE TO PINES WEATHER ROUNDUP
NATIONAL WEATHER SERVICE EASTERN NORTH DAKOTA/GRAND FORKS ND
500 PM CST FRI DEC 02 2016

 **SATELLITE DATA USED TO AUGMENT SKY COVER AT AUTOMATED STATIONS**
 *****  WEATHER ACROSS EASTERN NORTH DAKOTA  *****

CITY           SKY/WX    TMP DP  RH WIND       PRES   REMARKS
GRAND FORKS    CLOUDY    32  23  69 W5        30.26S
GRAND FORKS AF CLOUDY    32  23  69 S3        30.26S
GRAND CITY NWS   N/A     30 N/A N/A N2          N/A
BUXTON           N/A     44  36  73 SW2         N/A
DEVILS LAKE    CLOUDY    28  21  75 SW9       30.24S WCI  19
FARGO          CLOUDY    30  20  66 NW9       30.28S WCI  22
WAHPETON ARPT  CLOUDY    28  21  74 NW5       30.31R WCI  23
$$

 *****  WEATHER ACROSS CENTRAL AND WESTERN NORTH DAKOTA  *****

CITY           SKY/WX    TMP DP  RH WIND       PRES   REMARKS
JAMESTOWN      CLOUDY    26  18  71 W7        30.26R WCI  18
BISMARCK       CLOUDY    26  21  81 S6        30.24S WCI  19
MINOT          CLOUDY    28  24  85 SE9       30.17S WCI  19
MINOT AFB      CLOUDY    28  25  86 S9        30.16F WCI  20
GARRISON         N/A     27  23  85 S12       30.18S WCI  17
WILLISTON      CLOUDY    31  25  78 S6        30.13F
DICKINSON      CLOUDY    29  25  85 S6        30.13F WCI  23
HETTINGER      CLOUDY    29  25  85 S3        30.17F
$$

 *****  OTHER OBSERVATIONS NORTHEAST NORTH DAKOTA  *****

CITY           SKY/WX    TMP DP  RH WIND       PRES   REMARKS
WALHALLA         N/A     28  28 100 CALM      30.24F
LANGDON        CLOUDY    28  27  93 W8        30.21S WCI  20
CAVALIER         N/A     32  27  80 CALM      30.25S
GRAFTON        MOCLDY    32  25  74 W8        30.27S WCI  25
CANDO          CLOUDY    27  23  86 SW3       30.25S
FORT TOTTEN      N/A     27  19  71 SW6       29.95S WCI  20
ROLLA          CLOUDY    25  23  93 SW9       30.20F WCI  15
RUGBY          MIX PCPN  27  23  86 S6        30.21F WCI  20
 ***** THE ABOVE OBSERVATIONS ARE NON NWS ARE NOT QUALITY
        CONTROLLED AND MAY MIS-REPORT RAIN FOR SNOW...
$$

 *****  OTHER OBSERVATIONS SOUTHEAST NORTH DAKOTA *****

CITY           SKY/WX    TMP DP  RH WIND       PRES   REMARKS
COOPERSTOWN    CLOUDY    28  21  74 NW8       30.26R WCI  20
VALLEY CITY    CLOUDY    27  21  80 NW6       30.28S WCI  20
OAKES          NOT AVBL
GWINNER        CLOUDY    28  23  80 CALM      30.30R
SHEYENNE NWR     N/A     27  19  71 W5        29.95S WCI  22
BUFFALO          N/A     28  17  63 SW3         N/A
WYNDMERE         N/A     28  23  80 NW3         N/A
 ***** THE ABOVE OBSERVATIONS ARE NON NWS ARE NOT QUALITY
       CONTROLLED AND MAY MIS-REPORT RAIN FOR SNOW...
$$

  *****  WEATHER ACROSS NORTHERN MINNESOTA  *****

CITY           SKY/WX    TMP DP  RH WIND       PRES   REMARKS
FLAG ISLAND    CLOUDY    21  19  93 W8        30.23S WCI  12
WARROAD        CLOUDY    25  21  86 CALM      30.24S
ROSEAU         CLOUDY    27  21  80 CALM      30.24S
HALLOCK        MOCLDY    28  27  93 CALM      30.26R
THF RVR FALLS  CLOUDY    28  22  78 VRB6      30.25S WCI  22
HALSTAD          N/A     29  21  71 W3          N/A
FOSSTON        CLOUDY    25  19  80 W8        30.25S WCI  16
BAUDETTE       CLOUDY    24  20  84 W7        30.23R WCI  16
WASKISH        CLOUDY    25  21  86 W5        30.24R WCI  19
CROOKSTON      CLOUDY    30  23  74 NW5       30.27S
$$
  *****  WEATHER ACROSS CENTRAL AND WEST MINNESOTA  *****

CITY           SKY/WX    TMP DP  RH WIND       PRES   REMARKS
BEMIDJI        CLOUDY    24  19  83 CALM      30.23S
PARK RAPIDS    CLOUDY    25  19  78 W9        30.23S WCI  15
WADENA         CLOUDY    25  19  80 W8        30.25S WCI  16
DETROIT LAKES  CLOUDY    28  21  74 W8        30.27R WCI  20
MOORHEAD       CLOUDY    28  21  74 NW5       30.30R WCI  23
FERGUS FALLS   CLOUDY    27  19  74 NW7       30.33R WCI  19
ELBOW LAKE     CLOUDY    26  20  80 NW8       30.29S WCI  17
MORRIS MN      CLOUDY    27  21  80 W8        30.29R WCI  18
STAPLES        CLOUDY    25  21  86 W6        30.25S WCI  18
WHEATON        CLOUDY   N/A N/A N/A N5        30.32S
$$
  *****  WEATHER ELSEWHERE ACROSS MINNESOTA  *****

CITY           SKY/WX    TMP DP  RH WIND       PRES   REMARKS
DULUTH         CLOUDY    29  23  78 NW6       30.19S WCI  23
INTRNTL FALLS  CLOUDY    23  20  88 NW5       30.22S WCI  17
ELY            CLOUDY    25  25 100 CALM      30.20R
CLOQUET        CLOUDY    28  23  80 W6        30.21S WCI  22
BRAINERD       CLOUDY    26  21  81 N6        30.25R WCI  19
HIBBING        CLOUDY    25  23  92 NW7       30.21R WCI  17
ALEXANDRIA     CLOUDY    26  22  84 W8        30.27R WCI  18
SAINT CLOUD    CLOUDY    29  23  78 NW7       30.27R WCI  22
MINNEAPOLIS    CLOUDY    32  23  69 W7        30.28R
$$

  *****  WEATHER ACROSS SOUTH DAKOTA  *****

CITY           SKY/WX    TMP DP  RH WIND       PRES   REMARKS
SIOUX FALLS    CLOUDY    31  26  82 NW10      30.29S WCI  22
BROOKINGS      CLOUDY    27  19  74 NW8       30.27S WCI  18
WATERTOWN      LGT SNOW  24  19  81 NW10      30.26S WCI  14
HURON          MIX PCPN  30  26  85 NW5       30.30S
SISSETON         N/A     27  20  75 NW7       30.29R WCI  19
ABERDEEN       CLOUDY    28  18  66 NW10      30.30R WCI  19
MITCHELL       CLOUDY    32  26  78 NW5       30.31S
PIERRE         CLOUDY    31  24  75 CALM      30.25R
MOBRIDGE       CLOUDY    29  23  78 E7        30.22S WCI  22
RAPID CITY     PTCLDY    34  25  69 E7        30.18F
$$

  *****  SOME WEATHER IN NEARBY STATES *****

CITY           SKY/WX    TMP DP  RH WIND       PRES   REMARKS
GLASGOW MT     CLEAR     35  25  66 S8        30.03F
GREAT FALLS MT CLEAR     31  19  61 SW20      29.98F WCI  19
CHEYENNE WY    LGT SNOW  26  22  84 S10       30.13S FOG     WCI  16
SCOTTSBLUFF NE CLEAR     36  19  50 S5        30.19R
OMAHA NE       MOCLDY    36  28  73 N3        30.31R
DES MOINES IA  CLOUDY    40  32  73 N9        30.29S
DAVENPORT IA   CLOUDY    35  27  72 NW9       30.29R
CHICAGO IL     CLOUDY    37  25  61 NW8       30.24R
EAU CLAIRE WI  CLOUDY    32  24  72 W7        30.25R
LA CROSSE WI   CLOUDY    35  23  61 W6        30.28R
$$

  *****  SOME NATIONAL WEATHER *****

CITY           SKY/WX    TMP DP  RH WIND       PRES   REMARKS
LA GUARDIA NY  PTCLDY    50  27  40 W16G22    29.88S
RALEIGH NC     PTCLDY    47  29  49 W5        30.11R
ATLANTA GA     PTCLDY    54  29  38 NW8       30.23R
NEW ORLEANS LA CLOUDY    61  45  55 E13       30.18R
OKLAHOMA CITY  MOCLDY    53  32  44 NE6       30.12F
ALBUQUERQUE NM CLOUDY    45  18  34 E23       29.97R
SALT LAKE CITY PTCLDY    36  22  56 NW12      30.24R
LOS ANGELES CA SUNNY     65  10  11 N18G31    29.98R
BOISE ID       PTCLDY    37  22  54 CALM      30.34F
SEATTLE WA     LGT RAIN  47  44  90 S7        30.13F FOG
$$

*** WEATHER ACROSS MANITOBA...SASKATCHEWAN AND ONTARIO ***
                ***ONTARIO***

CITY           SKY/WX    TMP DP  RH WIND       PRES   REMARKS
GERALDTON      FLURRIES  25  23  93 NW8       30.13R WCI  16
THUNDER BAY    MOCLDY    32  25  74 W7        30.20R
SIOUX LOOKOUT  FLURRIES  23  19  86 N3        30.19S
TORONTO        MOCLDY    37  30  75 W12       29.93R
BIG TROUT LK   CLOUDY    19  18  93 NW7       30.24S WCI  10
PICKLE LAKE    FLURRIES  18  16  93 N6        30.19R WCI   9
DRYDEN         CLOUDY    21  19  93 W3        30.19S
KENORA         FLURRIES  18  16  93 W3        30.22R
$$
                *** MANITOBA***

CITY           SKY/WX    TMP DP  RH WIND       PRES   REMARKS
BRANDON        FLURRIES  27  23  86 SW6       30.20S WCI  20
DAUPHIN        CLOUDY    28  27  93 SE5       30.18F WCI  23
ISLAND LAKE    FLURRIES  16  14  93 VRB6      30.25S WCI   7
PILOT MOUND      N/A     27  23  86 W2          N/A
THE PAS        CLOUDY    25  23  93 SE6       30.15F WCI  18
THOMPSON       LGT SNOW  16  12  86 S5        30.21S WCI   9
WINNIPEG       CLOUDY    27  23  86 S3        30.25S
LYNN LAKE      CLOUDY    16  14  93 SE8       30.08F FOG     WCI   5
CHURCHILL      CLEAR      5   1  85 S8        30.22S WCI  -8
GILLAM         LGT SNOW  10   7  85 SW5       30.25S WCI   2
$$
                ***SASKATCHEWAN***

CITY           SKY/WX    TMP DP  RH WIND       PRES   REMARKS
ESTEVAN        LGT SNOW  27  27 100 NE2       30.11F FOG
KINDERSLEY     CLOUDY    23  21  93 S13       29.90F WCI  11
LLOYDMINSTER   CLOUDY    23  23 100 S12G20    29.88S FOG     WCI  12
PRINCE ALBERT  FLURRIES  27  25  93 SE6       30.02F WCI  20
REGINA         CLOUDY    27  23  86 SE10      30.05F WCI  17
YORKTON        CLOUDY    28  27  93 S8        30.09F WCC1F1C2F2C3F3C4F4C5F5C6F6C7F7C8F8C9F9CaFaCbFbCcFcCdFdCe!


USA.gov is the U.S. government's official web portal to all federal, state and local government web resources and services.